Location: *
(46.1833°N, 22.7667°E)
Time: 00:34:34
(UTC+00:00)

SL-16 R/B - Pass Details

Date: 17 September 2019
Orbit: 840 x 849 km, 71.0° (Epoch: 13 October)

Event Time Altitude Azimuth Distance (km) Brightness Sun altitude
Rises 20:27:35 0° 325° (NW) 3,415 6.4 -35.4°
Reaches altitude 10° 20:30:18 10° 315° (NW) 2,477 5.4 -35.6°
Enters shadow 20:33:51 27° 280° (W) 1,569 3.9 -36.0°
